Weather History for KANK - May, 2013

Change the Weather History Date:

Tuesday, May 28, 2013

  Actual Average (KGUC) Record (KGUC)
Temperature  
Mean Temperature 58 °F -  
Max Temperature 75 °F 68 °F 82 °F (2003)
Min Temperature 42 °F 34 °F 23 °F (2012)
Degree Days  
Heating Degree Days 6    
Growing Degree Days 8 (Base 50)    
Moisture  
Dew Point 16 °F    
Average Humidity 20    
Maximum Humidity 41    
Minimum Humidity 8    
Precipitation  
Precipitation 0.00 in - - ()
Sea Level Pressure  
Sea Level Pressure 29.95 in    
Wind  
Wind Speed 6 mph (SW)    
Max Wind Speed 18 mph    
Max Gust Speed 31 mph    
Visibility 10 miles    
Events      
Averages and records for this station are not official NWS values.
T = Trace of Precipitation, MM = Missing Value Source: NWS Daily Summary

Daily Weather History Graph

Daily Weather History Graph

Search for Another Location

Airport or City:

Trip Planner

Search our weather history database for the weather conditions in past years. The results will help you decide how hot, cold, wet, or windy it might be!

Date:

Astronomy

May. 28, 2013 Rise Set
Actual Time 5:43 AM MDT 8:20 PM MDT
Civil Twilight 5:12 AM MDT 8:51 PM MDT
Nautical Twilight 4:34 AM MDT 9:29 PM MDT
Astronomical Twilight 3:51 AM MDT 10:12 PM MDT
Moon 11:47 PM MDT (5/28) 9:33 AM MDT (5/28)
Length of Visible Light 15h 38m
Length of Day
14h 36m
Waning Gibbous, 82% of the Moon is Illuminated
May 28
Waning Gibbous
May 31
Last Quarter
Jun 8
New
Jun 16
First Quarter
Jun 23
Full

Hourly Weather History & Observations

Time (MDT) Temp. Windchill Dew Point Humidity Pressure Visibility Wind Dir Wind Speed Gust Speed Precip Events Conditions
12:15 AM 52.9 °F - 16.7 °F 24% 30.07 in 10.0 mi West 3.5 mph - N/A   Clear
12:35 AM 51.6 °F - 16.7 °F 25% 30.07 in 10.0 mi Calm Calm - N/A   Clear
12:55 AM 52.5 °F - 16.7 °F 24% 30.07 in 10.0 mi WNW 3.5 mph - N/A   Clear
1:15 AM 52.7 °F - 16.7 °F 24% 30.07 in 10.0 mi Calm Calm - N/A   Clear
1:35 AM 51.3 °F - 17.4 °F 26% 30.07 in 10.0 mi West 4.6 mph - N/A   Clear
1:55 AM 48.0 °F - 18.5 °F 31% 30.07 in 10.0 mi West 3.5 mph - N/A   Clear
2:15 AM 47.3 °F - 17.8 °F 31% 30.07 in 10.0 mi WSW 5.8 mph - N/A   Clear
2:35 AM 46.2 °F - 18.1 °F 33% 30.06 in 10.0 mi Calm Calm - N/A   Clear
2:55 AM 46.2 °F - 18.3 °F 33% 30.06 in 10.0 mi Calm Calm - N/A   Clear
3:15 AM 48.2 °F - 17.6 °F 30% 30.05 in 10.0 mi NNW 4.6 mph - N/A   Clear
3:35 AM 46.6 °F - 17.6 °F 32% 30.05 in 10.0 mi Calm Calm - N/A   Clear
3:55 AM 46.4 °F - 18.1 °F 32% 30.05 in 10.0 mi Calm Calm - N/A   Clear
4:15 AM 45.5 °F 44.2 °F 18.1 °F 34% 30.05 in 10.0 mi NNW 3.5 mph - N/A   Clear
4:35 AM 43.7 °F 42.1 °F 19.0 °F 37% 30.05 in 10.0 mi NW 3.5 mph - N/A   Clear
4:55 AM 45.5 °F 42.5 °F 18.3 °F 34% 30.05 in 10.0 mi NNW 5.8 mph - N/A   Clear
5:15 AM 45.1 °F - 17.6 °F 33% 30.05 in 10.0 mi Calm Calm - N/A   Clear
5:35 AM 42.1 °F - 18.5 °F 39% 30.05 in 10.0 mi Calm Calm - N/A   Clear
5:55 AM 44.2 °F 42.7 °F 19.2 °F 37% 30.05 in 10.0 mi NW 3.5 mph - N/A   Clear
6:15 AM 43.9 °F 39.3 °F 19.8 °F 38% 30.06 in 10.0 mi NNW 8.1 mph - N/A   Clear
6:35 AM 43.9 °F 41.3 °F 21.0 °F 40% 30.06 in 10.0 mi NW 4.6 mph - N/A   Clear
6:55 AM 44.6 °F - 21.9 °F 41% 30.06 in 10.0 mi Calm Calm - N/A   Clear
7:15 AM 47.3 °F - 22.3 °F 37% 30.06 in 10.0 mi NNW 5.8 mph - N/A   Clear
7:35 AM 46.8 °F - 24.3 °F 41% 30.06 in 10.0 mi Calm Calm - N/A   Clear
7:55 AM 48.7 °F - 20.7 °F 33% 30.05 in 10.0 mi NNW 3.5 mph - N/A   Clear
8:15 AM 52.0 °F - 22.8 °F 32% 30.05 in 10.0 mi Calm Calm - N/A   Clear
8:35 AM 52.5 °F - 21.0 °F 29% 30.05 in 10.0 mi Calm Calm - N/A   Clear
8:55 AM 55.2 °F - 21.4 °F 27% 30.04 in 10.0 mi Calm Calm - N/A   Clear
9:15 AM 57.2 °F - 21.0 °F 25% 30.03 in 10.0 mi NNE 4.6 mph - N/A   Clear
9:35 AM 59.0 °F - 22.5 °F 24% 30.03 in 10.0 mi Calm Calm - N/A   Clear
9:55 AM 61.3 °F - 19.2 °F 20% 30.02 in 10.0 mi Calm Calm - N/A   Clear
10:15 AM 64.9 °F - 18.9 °F 17% 30.00 in 10.0 mi North 6.9 mph - N/A   Clear
10:35 AM 67.1 °F - 14.4 °F 13% 29.99 in 10.0 mi South 9.2 mph - N/A   Clear
10:55 AM 69.1 °F - 12.2 °F 11% 29.98 in 10.0 mi SSE 13.8 mph 20.7 mph N/A   Clear
11:15 AM 69.8 °F - 11.7 °F 11% 29.98 in 10.0 mi South 15.0 mph 23.0 mph N/A   Clear
11:35 AM 70.0 °F - 11.3 °F 10% 29.97 in 10.0 mi SE 12.7 mph 19.6 mph N/A   Clear
11:55 AM 70.3 °F - 12.0 °F 11% 29.97 in 10.0 mi SSE 16.1 mph 21.9 mph N/A   Clear
12:15 PM 72.1 °F - 11.8 °F 10% 29.95 in 10.0 mi SE 18.4 mph 26.5 mph N/A   Clear
12:35 PM 72.5 °F - 10.0 °F 9% 29.94 in 10.0 mi SSE 15.0 mph 23.0 mph N/A   Clear
12:55 PM 73.4 °F - 10.9 °F 9% 29.94 in 10.0 mi South 15.0 mph 24.2 mph N/A   Clear
1:15 PM 73.6 °F - 10.9 °F 9% 29.93 in 10.0 mi SSE 12.7 mph 24.2 mph N/A   Clear
1:35 PM 74.7 °F - 11.8 °F 9% 29.92 in 10.0 mi SSE 12.7 mph 21.9 mph N/A   Clear
1:55 PM 73.6 °F - 12.7 °F 10% 29.90 in 10.0 mi SE 12.7 mph 24.2 mph N/A   Scattered Clouds
2:15 PM 73.6 °F - 12.2 °F 10% 29.90 in 10.0 mi SE 6.9 mph 21.9 mph N/A   Scattered Clouds
2:35 PM 75.9 °F - 13.1 °F 9% 29.89 in 10.0 mi SSW 10.4 mph 19.6 mph N/A   Clear
2:55 PM 74.8 °F - 12.7 °F 9% 29.88 in 10.0 mi South 12.7 mph 31.1 mph N/A   Clear
3:15 PM 75.2 °F - 11.3 °F 9% 29.87 in 10.0 mi SSE 17.3 mph 25.3 mph N/A   Clear
3:35 PM 74.8 °F - 12.0 °F 9% 29.86 in 10.0 mi SE 18.4 mph 27.6 mph N/A   Clear
3:55 PM 74.3 °F - 11.7 °F 9% 29.85 in 10.0 mi SW 9.2 mph 17.3 mph N/A   Clear
4:15 PM 73.8 °F - 11.7 °F 9% 29.85 in 10.0 mi South 11.5 mph 19.6 mph N/A   Clear
4:35 PM 74.8 °F - 11.7 °F 9% 29.84 in 10.0 mi SSW 8.1 mph - N/A   Clear
4:55 PM 73.4 °F - 7.7 °F 8% 29.83 in 10.0 mi SSW 15.0 mph 21.9 mph N/A   Clear
5:15 PM 73.4 °F - 9.0 °F 8% 29.83 in 10.0 mi SW 15.0 mph 18.4 mph N/A   Clear
5:35 PM 72.5 °F - 7.3 °F 8% 29.83 in 10.0 mi SW 11.5 mph - N/A   Clear
5:55 PM 71.4 °F - 8.1 °F 9% 29.83 in 10.0 mi SW 12.7 mph 16.1 mph N/A   Clear
6:15 PM 71.1 °F - 8.1 °F 9% 29.83 in 10.0 mi SW 11.5 mph 19.6 mph N/A   Clear
6:35 PM 71.1 °F - 7.7 °F 9% 29.83 in 10.0 mi SSW 15.0 mph 23.0 mph N/A   Clear
6:55 PM 70.7 °F - 9.9 °F 10% 29.83 in 10.0 mi SW 11.5 mph - N/A   Clear
7:15 PM 70.0 °F - 10.0 °F 10% 29.83 in 10.0 mi SSW 13.8 mph 23.0 mph N/A   Clear
7:35 PM 69.4 °F - 9.1 °F 10% 29.82 in 10.0 mi South 11.5 mph - N/A   Clear
7:55 PM 69.1 °F - 7.2 °F 9% 29.82 in 10.0 mi SSW 13.8 mph 20.7 mph N/A   Clear
8:15 PM 68.5 °F - 5.4 °F 8% 29.82 in 10.0 mi South 15.0 mph 24.2 mph N/A   Clear
8:35 PM 67.3 °F - 5.9 °F 9% 29.83 in 10.0 mi SW 10.4 mph - N/A   Clear
8:55 PM 65.3 °F - 16.2 °F 15% 29.85 in 10.0 mi West 4.6 mph - N/A   Clear
9:15 PM 63.7 °F - 18.0 °F 17% 29.86 in 10.0 mi WSW 8.1 mph - N/A   Clear
9:35 PM 62.2 °F - 19.8 °F 19% 29.87 in 10.0 mi West 8.1 mph - N/A   Clear
9:55 PM 61.2 °F - 19.6 °F 20% 29.87 in 10.0 mi WSW 8.1 mph - N/A   Clear
10:15 PM 60.8 °F - 20.3 °F 21% 29.87 in 10.0 mi WSW 3.5 mph - N/A   Clear
10:35 PM 58.5 °F - 20.7 °F 23% 29.88 in 10.0 mi West 3.5 mph - N/A   Clear
10:55 PM 58.6 °F - 20.7 °F 23% 29.87 in 10.0 mi West 5.8 mph - N/A   Clear
11:15 PM 57.6 °F - 20.8 °F 24% 29.87 in 10.0 mi WNW 4.6 mph - N/A   Clear
11:35 PM 55.8 °F - 21.7 °F 27% 29.86 in 10.0 mi WSW 3.5 mph - N/A   Clear
11:55 PM 52.5 °F - 22.3 °F 31% 29.86 in 10.0 mi West 5.8 mph - N/A   Clear